Погода в Фаниполе

Беларусь     53°44′43″N   27°20′00″E
темп.,
°C
ветер,
м/с
пор.,
м/с
влажн.,
%
обл.,
%
осадки,
мм/ч
давл.,
гПа
погр.,
м
11 мая, вт
вт1100:00+8юв3108540 0.0 1025165
03:00+7юв39815 0.0 1025154
06:00+6юв367738 0.0 1025105
09:00+11юв586638 0.0 1025374
12:00+16юв56515 0.0 1024966
15:00+18вюв56465 0.0 10221205
18:00+17в575620 0.0 1021741
21:00+12в411796 0.0 1021178
12 мая, ср
ср1200:00+10вюв499159 0.0 1021152
03:00+9в49955 0.0 1021159
06:00+9вюв4109995 0.0 1021313
09:00+11юв710730 0.0 1021783
12:00+14вюв79611 0.0 10201253
15:00+16юв675483 0.0 10191459
18:00+15в445721 0.0 10161296
21:00+11св347379 0.0 101440
13 мая, чт
чт1300:00+10с2384100 0.4 101170
03:00+9зсз5997100 7.2 1007507
06:00+9зюз3499100 7.1 1004254
09:00+8ю91396100 12.9 1006929
12:00+8ююв71394100 6.3 10081165
15:00+12ююв91283100 7.3 10071579
18:00+10юв71290100 0.8 10081031
21:00+10юв71591100 1.4 1007685
14 мая, пт
пт1400:00+10юв7168990 0.1 1007640
03:00+10юв6159351 0.1 1008483
06:00+10юв61594100 0.0 1007566
09:00+12юв61290100 0.1 1008702
12:00+15ююв6107691 0.0 10081013
15:00+14ююв6888100 0.9 1008510
18:00+13ююв468899 0.5 1008546
21:00+11ю369683 0.6 1008166
15 мая, сб
сб1500:00+11ююз359797 0.0 1008109
03:00+9юз359937 0.0 100993
06:00+8юз369710 0.0 1009124
09:00+11ююз468898 0.0 1010412
12:00+12зюз568392 0.1 1010766
15:00+19ююз456578 1.8 10071336
18:00
21:00+11з22926 0.3 101128